ZHONGXING-6C

Last updated on Tue Sep 22 2026 00:03:14 GMT+0000 (Coordinated Universal Time)

1 44067U 19012A 26264.68049851 -.00000339 00000+0 00000+0 0 9999 2 44067 0.0495 331.6537 0014057 93.1572 311.1900 1.00273323 27705
UTC large
Height (km)
Speed (km/s)
/
Latitude / Longitude
Inclination (degrees)
Orbital Period (minutes)
Azimuth
Elevation
Range (km)
Doppler Factor

Next 0 passes for location: London (51.5072 / 0.1276)

No passes found over London.
ZHONGXING-6C